Pocatello, ID

1:20 PM MST on December 06, 2016 (GMT -0700)
Pocatello Regional

Weather History for KPIH - May, 2014

Change the Weather History Date:

Wednesday, May 21, 2014

  Actual Average Record
Temperature  
Mean Temperature 60 °F 55 °F  
Max Temperature 79 °F 69 °F 92 °F (2012)
Min Temperature 41 °F 41 °F 26 °F (2001)
Degree Days  
Heating Degree Days 5 10  
Month to date heating degree days 246 266  
Since 1 July heating degree days 6516 6960  
Cooling Degree Days 0 0  
Month to date cooling degree days 0 0  
Year to date cooling degree days 0 0  
Growing Degree Days 12 (Base 50)    
Moisture  
Dew Point 38 °F    
Average Humidity 50    
Maximum Humidity 83    
Minimum Humidity 16    
Precipitation  
Precipitation T in 0.04 in 1.29 in (1970)
Month to date precipitation 0.34 0.98  
Year to date precipitation 5.71 5.35  
Snow  
Snow 0.00 in - - ()
Month to date snowfall 0.0  
Since 1 July snowfall 29.4  
Snow Depth 0.00 in    
Sea Level Pressure  
Sea Level Pressure 29.88 in    
Wind  
Wind Speed 8 mph (ENE)    
Max Wind Speed 38 mph    
Max Gust Speed 46 mph    
Visibility 10 miles    
Events      
T = Trace of Precipitation, MM = Missing Value Source: NWS Daily Summary

Daily Weather History Graph

Daily Weather History Graph

Search for Another Location

Airport or City:

Trip Planner

Search our weather history database for the weather conditions in past years. The results will help you decide how hot, cold, wet, or windy it might be!

Date:

Astronomy

May. 21, 2014 Rise Set
Actual Time 6:01 AM MDT 8:52 PM MDT
Civil Twilight 5:28 AM MDT 9:26 PM MDT
Nautical Twilight 4:46 AM MDT 10:08 PM MDT
Astronomical Twilight 3:57 AM MDT 10:57 PM MDT
Moon 1:57 AM MDT (5/21) 1:27 PM MDT (5/21)
Length of Visible Light 15h 57m
Length of Day
14h 51m
Waning Gibbous, 48% of the Moon is Illuminated
May 21
Waning Gibbous
May 28
New
Jun 5
First Quarter
Jun 12
Full
Jun 19
Last Quarter

Hourly Weather History & Observations

Time (MDT) Temp. Windchill Dew Point Humidity Pressure Visibility Wind Dir Wind Speed Gust Speed Precip Events Conditions
12:53 AM 48.9 °F - 41.0 °F 74% 29.85 in 10.0 mi NW 3.5 mph - N/A   Mostly Cloudy
1:53 AM 45.0 °F - 39.9 °F 82% 29.86 in 10.0 mi Calm Calm - N/A   Clear
2:53 AM 48.0 °F - 39.9 °F 74% 29.83 in 10.0 mi Calm Calm - N/A   Clear
3:53 AM 45.0 °F - 37.9 °F 76% 29.86 in 10.0 mi Calm Calm - N/A   Partly Cloudy
4:53 AM 46.9 °F - 39.0 °F 74% 29.84 in 10.0 mi NE 10.4 mph - N/A   Mostly Cloudy
5:53 AM 45.0 °F 39.7 °F 37.9 °F 76% 29.84 in 10.0 mi NE 10.4 mph - N/A   Clear
6:53 AM 48.0 °F - 39.0 °F 71% 29.85 in 10.0 mi NE 10.4 mph - N/A   Clear
7:53 AM 53.1 °F - 39.9 °F 61% 29.84 in 10.0 mi NE 9.2 mph - N/A   Clear
9:53 AM 62.1 °F - 43.0 °F 50% 29.85 in 10.0 mi ENE 11.5 mph - N/A   Clear
10:53 AM 66.9 °F - 42.1 °F 40% 29.83 in 10.0 mi NE 9.2 mph - N/A   Clear
11:53 AM 71.6 °F - 41.0 °F 33% 29.92 in 10.0 mi ENE 5.8 mph - N/A   Clear
12:53 PM 73.9 °F - 39.0 °F 28% 29.81 in 10.0 mi NE 10.4 mph 17.3 mph N/A   Clear
1:53 PM 73.0 °F - 39.9 °F 30% 29.83 in 10.0 mi Variable 5.8 mph - N/A   Clear
2:14 PM 77.0 °F - 30.9 °F 19% 29.91 in 10.0 mi SSW 15.0 mph 20.7 mph N/A   Mostly Cloudy
2:53 PM 78.1 °F - 28.0 °F 16% 29.80 in 10.0 mi SSE 9.2 mph 16.1 mph N/A   Mostly Cloudy
3:53 PM 71.1 °F - 24.1 °F 17% 29.86 in 10.0 mi South 27.6 mph 44.9 mph 0.00 in   Mostly Cloudy
4:12 PM 70.0 °F - 28.0 °F 21% 29.94 in 10.0 mi ESE 18.4 mph 29.9 mph N/A   Scattered Clouds
4:53 PM 70.0 °F - 34.0 °F 27% 29.85 in 10.0 mi East 17.3 mph - N/A   Scattered Clouds
5:53 PM 69.1 °F - 33.1 °F 26% 29.86 in 10.0 mi East 10.4 mph - N/A   Scattered Clouds
6:44 PM 63.0 °F - 39.0 °F 41% 29.95 in 10.0 mi East 4.6 mph - N/A   Scattered Clouds
6:53 PM 63.0 °F - 39.0 °F 41% 29.87 in 10.0 mi Calm Calm - N/A   Scattered Clouds
7:01 PM 64.0 °F - 37.0 °F 37% 29.95 in 10.0 mi Variable 3.5 mph - N/A   Scattered Clouds
7:53 PM 59.0 °F - 39.9 °F 49% 29.90 in 10.0 mi NNW 8.1 mph - N/A   Scattered Clouds
8:53 PM 59.0 °F - 39.0 °F 48% 29.93 in 10.0 mi Calm Calm - N/A   Partly Cloudy
9:53 PM 55.9 °F - 39.9 °F 55% 29.94 in 10.0 mi NNE 3.5 mph - N/A   Clear
10:53 PM 53.1 °F - 39.9 °F 61% 29.96 in 10.0 mi SSW 9.2 mph - N/A   Clear
11:53 PM 51.1 °F - 42.1 °F 71% 29.98 in 10.0 mi SW 10.4 mph - N/A   Clear